| time (UTC) | temp F | wind direction | speed MPH | gust MPH | rain 1hr in | rain 24hr in | rain mn in | humidity % | barometer mb |
| 20260504180950 | 75 | 50 | 0.0 | 0.0 | 0.00 | 0.00 | 0.00 | 37 | 1015.2 |
| 20260504180449 | 77 | 148 | 0.0 | 1.0 | 0.00 | 0.00 | 0.00 | 38 | 1015.3 |
| 20260504175947 | 76 | 249 | 0.0 | 1.0 | 0.00 | 0.00 | 0.00 | 38 | 1015.3 |
| 20260504175443 | 75 | 259 | 0.0 | 2.0 | 0.00 | 0.00 | 0.00 | 38 | 1015.2 |
| 20260504174941 | 75 | 338 | 2.0 | 6.0 | 0.00 | 0.00 | 0.00 | 38 | 1015.3 |
| 20260504174438 | 74 | 273 | 0.0 | 4.0 | 0.00 | 0.00 | 0.00 | 37 | 1015.5 |
| 20260504173936 | 74 | 244 | 2.0 | 7.0 | 0.00 | 0.00 | 0.00 | 38 | 1015.3 |
| 20260504173431 | 73 | 121 | 0.0 | 2.0 | 0.00 | 0.00 | 0.00 | 38 | 1015.3 |
| 20260504172930 | 74 | 254 | 0.0 | 4.0 | 0.00 | 0.00 | 0.00 | 36 | 1015.5 |
| 20260504172425 | 73 | 252 | 5.0 | 7.0 | 0.00 | 0.00 | 0.00 | 38 | 1015.6 |
| 20260504171922 | 74 | 267 | 0.0 | 6.0 | 0.00 | 0.00 | 0.00 | 40 | 1015.7 |
| 20260504171419 | 74 | 295 | 0.0 | 7.0 | 0.00 | 0.00 | 0.00 | 39 | 1015.7 |
| 20260504170916 | 73 | 243 | 0.0 | 0.0 | 0.00 | 0.00 | 0.00 | 40 | 1015.7 |
| 20260504170412 | 73 | 230 | 0.0 | 2.0 | 0.00 | 0.00 | 0.00 | 41 | 1015.8 |
| 20260504160331 | 69 | 336 | 2.0 | 3.0 | 0.00 | 0.00 | 0.00 | 39 | 1016.9 |
| 20260504150756 | 67 | 302 | 0.0 | 0.0 | 0.00 | 0.00 | 0.00 | 42 | 1017.4 |
| 20260504150253 | 66 | 351 | 0.0 | 0.0 | 0.00 | 0.00 | 0.00 | 43 | 1017.3 |
| 20260504141223 | 63 | 283 | 0.0 | 2.0 | 0.00 | 0.00 | 0.00 | 57 | 1017.1 |
| 20260504140719 | 62 | 256 | 0.0 | 0.0 | 0.00 | 0.00 | 0.00 | 61 | 1016.9 |
| 20260504140214 | 62 | 253 | 0.0 | 0.0 | 0.00 | 0.00 | 0.00 | 61 | 1017.2 |
| 20260504130643 | 56 | 337 | 0.0 | 0.0 | 0.00 | 0.00 | 0.00 | 73 | 1017.4 |
| 20260504130139 | 56 | 337 | 0.0 | 0.0 | 0.00 | 0.00 | 0.00 | 75 | 1017.3 |
| 20260504120104 | 44 | 338 | 0.0 | 0.0 | 0.00 | 0.00 | 0.00 | 99 | 1017.3 |
| 20260504110531 | 40 | 338 | 0.0 | 0.0 | 0.00 | 0.00 | 0.00 | 99 | 1017.2 |
| 20260504100453 | 39 | 338 | 0.0 | 0.0 | 0.00 | 0.00 | 0.00 | 99 | 1017.2 |
| 20260504081846 | 40 | 338 | 0.0 | 0.0 | 0.00 | 0.00 | 0.00 | 97 | 1017.0 |
| 20260504081343 | 40 | 338 | 0.0 | 0.0 | 0.00 | 0.00 | 0.00 | 97 | 1017.0 |
| 20260504080839 | 41 | 338 | 0.0 | 0.0 | 0.00 | 0.00 | 0.00 | 97 | 1017.0 |
| 20260504080336 | 41 | 338 | 0.0 | 0.0 | 0.00 | 0.00 | 0.00 | 97 | 1017.1 |
| 20260504070303 | 42 | 338 | 0.0 | 0.0 | 0.00 | 0.00 | 0.00 | 93 | 1016.8 |
| 20260504060224 | 42 | 338 | 0.0 | 0.0 | 0.00 | 0.00 | 0.00 | 91 | 1017.1 |
| 20260504050651 | 42 | 338 | 0.0 | 0.0 | 0.00 | 0.00 | 0.00 | 90 | 1017.3 |
| 20260504050148 | 42 | 338 | 0.0 | 0.0 | 0.00 | 0.00 | 0.00 | 90 | 1017.4 |
| 20260504045646 | 42 | 338 | 0.0 | 0.0 | 0.00 | 0.00 | 0.00 | 90 | 1017.3 |
| 20260504045146 | 43 | 338 | 0.0 | 0.0 | 0.00 | 0.00 | 0.00 | 89 | 1017.2 |
| 20260504044644 | 43 | 338 | 0.0 | 0.0 | 0.00 | 0.00 | 0.00 | 89 | 1017.2 |
| 20260504044140 | 43 | 338 | 0.0 | 0.0 | 0.00 | 0.00 | 0.00 | 89 | 1017.3 |
| 20260504043637 | 43 | 338 | 0.0 | 0.0 | 0.00 | 0.00 | 0.00 | 89 | 1017.2 |
| 20260504043135 | 43 | 338 | 0.0 | 0.0 | 0.00 | 0.00 | 0.00 | 89 | 1017.0 |
| 20260504042632 | 43 | 338 | 0.0 | 0.0 | 0.00 | 0.00 | 0.00 | 89 | 1017.1 |
| 20260504042128 | 43 | 338 | 0.0 | 0.0 | 0.00 | 0.00 | 0.00 | 89 | 1017.1 |
| 20260504041624 | 43 | 338 | 0.0 | 0.0 | 0.00 | 0.00 | 0.00 | 88 | 1017.2 |
| 20260504041121 | 43 | 338 | 0.0 | 0.0 | 0.00 | 0.00 | 0.00 | 88 | 1017.1 |
| 20260504040618 | 43 | 338 | 0.0 | 0.0 | 0.00 | 0.00 | 0.00 | 87 | 1017.1 |
| 20260504040115 | 43 | 338 | 0.0 | 0.0 | 0.00 | 0.00 | 0.00 | 87 | 1017.2 |
| 20260504035612 | 43 | 338 | 0.0 | 0.0 | 0.00 | 0.00 | 0.00 | 87 | 1017.1 |
| 20260504035108 | 43 | 338 | 0.0 | 0.0 | 0.00 | 0.00 | 0.00 | 87 | 1017.0 |
| 20260504034606 | 43 | 338 | 0.0 | 0.0 | 0.00 | 0.00 | 0.00 | 87 | 1017.1 |
| 20260504034102 | 44 | 338 | 0.0 | 0.0 | 0.00 | 0.00 | 0.00 | 86 | 1017.3 |
| 20260504033600 | 44 | 338 | 0.0 | 0.0 | 0.00 | 0.00 | 0.00 | 85 | 1017.3 |
| 20260504033057 | 44 | 338 | 0.0 | 0.0 | 0.00 | 0.00 | 0.00 | 86 | 1017.2 |
| 20260504032554 | 44 | 338 | 0.0 | 0.0 | 0.00 | 0.00 | 0.00 | 85 | 1017.1 |
| 20260504032051 | 44 | 338 | 0.0 | 0.0 | 0.00 | 0.00 | 0.00 | 86 | 1016.9 |
| 20260504031548 | 44 | 338 | 0.0 | 0.0 | 0.00 | 0.00 | 0.00 | 85 | 1017.1 |
| 20260504031044 | 44 | 338 | 0.0 | 0.0 | 0.00 | 0.00 | 0.00 | 85 | 1017.1 |
| 20260504030542 | 44 | 338 | 0.0 | 0.0 | 0.00 | 0.00 | 0.00 | 83 | 1017.3 |
| 20260504030037 | 44 | 338 | 0.0 | 0.0 | 0.00 | 0.00 | 0.00 | 83 | 1017.3 |
| 20260504025535 | 45 | 338 | 0.0 | 0.0 | 0.00 | 0.00 | 0.00 | 82 | 1017.2 |
| 20260504025031 | 45 | 338 | 0.0 | 0.0 | 0.00 | 0.00 | 0.00 | 81 | 1017.1 |
| 20260504024529 | 45 | 338 | 0.0 | 0.0 | 0.00 | 0.00 | 0.00 | 80 | 1017.0 |
| 20260504024025 | 45 | 338 | 0.0 | 0.0 | 0.00 | 0.00 | 0.00 | 80 | 1016.9 |
| 20260504023522 | 45 | 338 | 0.0 | 0.0 | 0.00 | 0.00 | 0.00 | 79 | 1017.2 |
| 20260504023018 | 45 | 338 | 0.0 | 0.0 | 0.00 | 0.00 | 0.00 | 78 | 1016.9 |
| 20260504022514 | 46 | 338 | 0.0 | 0.0 | 0.00 | 0.00 | 0.00 | 78 | 1016.7 |
| 20260504022011 | 46 | 338 | 0.0 | 0.0 | 0.00 | 0.00 | 0.00 | 78 | 1017.0 |
| 20260504021509 | 46 | 338 | 0.0 | 0.0 | 0.00 | 0.00 | 0.00 | 76 | 1016.8 |
| 20260504021005 | 46 | 338 | 0.0 | 0.0 | 0.00 | 0.00 | 0.00 | 77 | 1016.8 |
| 20260504020502 | 46 | 338 | 0.0 | 0.0 | 0.00 | 0.00 | 0.00 | 77 | 1016.6 |
| 20260504015958 | 46 | 338 | 0.0 | 0.0 | 0.00 | 0.00 | 0.00 | 76 | 1016.6 |
| 20260504015454 | 47 | 338 | 0.0 | 0.0 | 0.00 | 0.00 | 0.00 | 74 | 1016.5 |
| 20260504014950 | 47 | 338 | 0.0 | 0.0 | 0.00 | 0.00 | 0.00 | 74 | 1016.6 |
| 20260504014447 | 47 | 338 | 0.0 | 0.0 | 0.00 | 0.00 | 0.00 | 73 | 1016.3 |
| 20260504013944 | 47 | 338 | 0.0 | 0.0 | 0.00 | 0.00 | 0.00 | 72 | |
| 20260504013442 | 47 | 338 | 0.0 | 0.0 | 0.00 | 0.00 | 0.00 | 72 | |
| 20260504012938 | 48 | 338 | 0.0 | 0.0 | 0.00 | 0.00 | 0.00 | 71 | 1016.3 |
| 20260504012436 | 48 | 338 | 0.0 | 0.0 | 0.00 | 0.00 | 0.00 | 69 | 1016.3 |
| 20260504011934 | 49 | 338 | 0.0 | 0.0 | 0.00 | 0.00 | 0.00 | 68 | 1016.5 |
| 20260504011430 | 49 | 338 | 0.0 | 0.0 | 0.00 | 0.00 | 0.00 | 66 | 1016.2 |
| 20260504010926 | 49 | 338 | 0.0 | 0.0 | 0.00 | 0.00 | 0.00 | 65 | 1016.4 |
| 20260504010422 | 50 | 338 | 0.0 | 0.0 | 0.00 | 0.00 | 0.00 | 64 | 1016.4 |
| 20260504005918 | 50 | 338 | 0.0 | 0.0 | 0.00 | 0.00 | 0.00 | 63 | 1016.4 |
| 20260504005415 | 51 | 338 | 0.0 | 0.0 | 0.00 | 0.00 | 0.00 | 60 | 1016.1 |
| 20260504004913 | 51 | 338 | 0.0 | 0.0 | 0.00 | 0.00 | 0.00 | 60 | 1016.4 |
| 20260504004410 | 51 | 338 | 0.0 | 0.0 | 0.00 | 0.00 | 0.00 | 57 | 1016.2 |
| 20260504003907 | 52 | 338 | 0.0 | 0.0 | 0.00 | 0.00 | 0.00 | 57 | 1016.1 |
| 20260504003403 | 53 | 338 | 0.0 | 0.0 | 0.00 | 0.00 | 0.00 | 57 | 1016.0 |
| 20260504002900 | 54 | 338 | 0.0 | 0.0 | 0.00 | 0.00 | 0.00 | 54 | 1016.1 |
| 20260504002357 | 54 | 338 | 0.0 | 0.0 | 0.00 | 0.00 | 0.00 | 53 | 1015.9 |
| 20260504001855 | 55 | 337 | 0.0 | 0.0 | 0.00 | 0.00 | 0.00 | 53 | |
| 20260504001352 | 55 | 337 | 0.0 | 0.0 | 0.00 | 0.00 | 0.00 | 50 | 1015.7 |
| 20260504000848 | 56 | 337 | 0.0 | 0.0 | 0.00 | 0.00 | 0.00 | 47 | 1015.7 |
| 20260504000346 | 57 | 337 | 0.0 | 0.0 | 0.00 | 0.00 | 0.00 | 48 | 1015.8 |
| 20260503235843 | 58 | 337 | 0.0 | 0.0 | 0.00 | 0.00 | 0.00 | 45 | 1015.8 |
| 20260503235341 | 59 | 337 | 0.0 | 0.0 | 0.00 | 0.00 | 0.00 | 43 | 1015.9 |
| 20260503234838 | 60 | 336 | 0.0 | 0.0 | 0.00 | 0.00 | 0.00 | 42 | 1015.9 |
| 20260503234336 | 60 | 335 | 0.0 | 0.0 | 0.00 | 0.00 | 0.00 | 40 | 1015.9 |
| 20260503233833 | 61 | 277 | 0.0 | 0.0 | 0.00 | 0.00 | 0.00 | 38 | 1015.9 |
| 20260503233329 | 62 | 270 | 0.0 | 0.0 | 0.00 | 0.00 | 0.00 | 37 | 1016.0 |
| 20260503232825 | 62 | 259 | 0.0 | 0.0 | 0.00 | 0.00 | 0.00 | 37 | 1015.8 |
| 20260503232323 | 62 | 259 | 0.0 | 0.0 | 0.00 | 0.00 | 0.00 | 36 | 1015.7 |
| 20260503231821 | 62 | 301 | 0.0 | 0.0 | 0.00 | 0.00 | 0.00 | 34 | 1015.7 |
| 20260503231318 | 63 | 301 | 0.0 | 0.0 | 0.00 | 0.00 | 0.00 | 34 | 1015.8 |
| 20260503230813 | 63 | 304 | 0.0 | 0.0 | 0.00 | 0.00 | 0.00 | 35 | 1015.7 |
| 20260503230311 | 64 | 308 | 0.0 | 0.0 | 0.00 | 0.00 | 0.00 | 35 | 1016.0 |
| 20260503225808 | 64 | 308 | 0.0 | 0.0 | 0.00 | 0.00 | 0.00 | 31 | 1015.9 |
| 20260503225304 | 64 | 313 | 0.0 | 0.0 | 0.00 | 0.00 | 0.00 | 35 | 1015.9 |
| 20260503224800 | 64 | 271 | 0.0 | 0.0 | 0.00 | 0.00 | 0.00 | 33 | 1015.9 |
| 20260503224258 | 64 | 302 | 0.0 | 0.0 | 0.00 | 0.00 | 0.00 | 30 | 1016.0 |
| 20260503223755 | 64 | 273 | 0.0 | 0.0 | 0.00 | 0.00 | 0.00 | 30 | |
| 20260503223253 | 64 | 357 | 0.0 | 0.0 | 0.00 | 0.00 | 0.00 | 32 | |
| 20260503222749 | 65 | 262 | 1.0 | 2.0 | 0.00 | 0.00 | 0.00 | 29 | 1016.2 |
| 20260503222247 | 65 | 264 | 0.0 | 0.0 | 0.00 | 0.00 | 0.00 | 29 | 1016.2 |
| 20260503221745 | 65 | 307 | 0.0 | 4.0 | 0.00 | 0.00 | 0.00 | 28 | |
| 20260503221243 | 65 | 312 | 0.0 | 0.0 | 0.00 | 0.00 | 0.00 | 30 | |
| 20260503220739 | 65 | 269 | 0.0 | 1.0 | 0.00 | 0.00 | 0.00 | 28 | |
| 20260503220236 | 65 | 270 | 0.0 | 0.0 | 0.00 | 0.00 | 0.00 | 31 | |
| 20260503215732 | 65 | 304 | 0.0 | 2.0 | 0.00 | 0.00 | 0.00 | 28 | |
| 20260503215230 | 65 | 259 | 0.0 | 0.0 | 0.00 | 0.00 | 0.00 | 29 | 1016.4 |
| 20260503214728 | 65 | 244 | 0.0 | 0.0 | 0.00 | 0.00 | 0.00 | 28 | 1016.4 |
| 20260503214224 | 65 | 331 | 0.0 | 2.0 | 0.00 | 0.00 | 0.00 | 30 | 1016.6 |
| 20260503213722 | 65 | 303 | 0.0 | 0.0 | 0.00 | 0.00 | 0.00 | 28 | 1016.5 |
| 20260503213219 | 65 | 281 | 0.0 | 3.0 | 0.00 | 0.00 | 0.00 | 27 | 1016.5 |
| 20260503212716 | 65 | 13 | 0.0 | 1.0 | 0.00 | 0.00 | 0.00 | 30 | 1016.7 |
| 20260503212214 | 65 | 231 | 5.0 | 7.0 | 0.00 | 0.00 | 0.00 | 27 | 1016.7 |
| 20260503211711 | 65 | 279 | 1.0 | 4.0 | 0.00 | 0.00 | 0.00 | 28 | 1016.7 |
| 20260503211207 | 65 | 248 | 5.0 | 6.0 | 0.00 | 0.00 | 0.00 | 29 | |
| 20260503210703 | 66 | 316 | 0.0 | 2.0 | 0.00 | 0.00 | 0.00 | 30 | 1016.6 |
| 20260503210200 | 66 | 275 | 1.0 | 6.0 | 0.00 | 0.00 | 0.00 | 30 | 1016.6 |
| 20260503205655 | 65 | 134 | 1.0 | 2.0 | 0.00 | 0.00 | 0.00 | 30 | 1016.8 |
| 20260503205152 | 66 | 288 | 0.0 | 3.0 | 0.00 | 0.00 | 0.00 | 27 | 1016.7 |
| 20260503204649 | 66 | 280 | 0.0 | 3.0 | 0.00 | 0.00 | 0.00 | 28 | 1016.5 |
| 20260503204146 | 65 | 275 | 1.0 | 4.0 | 0.00 | 0.00 | 0.00 | 27 | 1016.8 |
| 20260503203643 | 66 | 296 | 1.0 | 6.0 | 0.00 | 0.00 | 0.00 | 28 | 1016.9 |
| 20260503203141 | 66 | 259 | 6.0 | 8.0 | 0.00 | 0.00 | 0.00 | 27 | 1016.9 |
| 20260503202638 | 65 | 261 | 1.0 | 4.0 | 0.00 | 0.00 | 0.00 | 29 | 1016.9 |
| 20260503202136 | 65 | 265 | 1.0 | 3.0 | 0.00 | 0.00 | 0.00 | 29 | 1017.1 |
| 20260503201634 | 65 | 336 | 0.0 | 4.0 | 0.00 | 0.00 | 0.00 | 29 | 1017.2 |
| 20260503201131 | 66 | 269 | 3.0 | 3.0 | 0.00 | 0.00 | 0.00 | 27 | 1017.3 |
| 20260503200627 | 64 | 274 | 0.0 | 2.0 | 0.00 | 0.00 | 0.00 | 29 | 1017.4 |
| 20260503200124 | 63 | 5 | 0.0 | 3.0 | 0.00 | 0.00 | 0.00 | 30 | 1017.4 |
| 20260503195621 | 65 | 50 | 0.0 | 2.0 | 0.00 | 0.00 | 0.00 | 28 | 1017.6 |
| 20260503195118 | 64 | 342 | 1.0 | 2.0 | 0.00 | 0.00 | 0.00 | 31 | 1017.5 |
| 20260503194615 | 65 | 199 | 2.0 | 4.0 | 0.00 | 0.00 | 0.00 | 27 | 1017.7 |
| 20260503194109 | 65 | 316 | 0.0 | 2.0 | 0.00 | 0.00 | 0.00 | 32 | 1017.5 |
| 20260503193607 | 64 | 252 | 1.0 | 2.0 | 0.00 | 0.00 | 0.00 | 35 | 1017.6 |
| 20260503193102 | 64 | 53 | 0.0 | 2.0 | 0.00 | 0.00 | 0.00 | 29 | 1017.6 |
| 20260503192558 | 65 | 2 | 2.0 | 4.0 | 0.00 | 0.00 | 0.00 | 28 | 1017.7 |
| 20260503192054 | 65 | 329 | 0.0 | 3.0 | 0.00 | 0.00 | 0.00 | 30 | |
| 20260503191551 | 63 | 285 | 0.0 | 4.0 | 0.00 | 0.00 | 0.00 | 33 | |
| 20260503191048 | 64 | 188 | 3.0 | 8.0 | 0.00 | 0.00 | 0.00 | 29 | |
| 20260503190544 | 64 | 36 | 0.0 | 3.0 | 0.00 | 0.00 | 0.00 | 32 | |
| 20260503190042 | 64 | 283 | 3.0 | 3.0 | 0.00 | 0.00 | 0.00 | 33 | |
| 20260503185538 | 63 | 255 | 1.0 | 3.0 | 0.00 | 0.00 | 0.00 | 33 | |
| 20260503185038 | 63 | 216 | 4.0 | 4.0 | 0.00 | 0.00 | 0.00 | 30 | 1018.3 |
| 20260503184534 | 62 | 285 | 0.0 | 9.0 | 0.00 | 0.00 | 0.00 | 30 | 1018.3 |
| 20260503184031 | 63 | 335 | 0.0 | 6.0 | 0.00 | 0.00 | 0.00 | 30 | |
| 20260503183528 | 62 | 244 | 0.0 | 0.0 | 0.00 | 0.00 | 0.00 | 30 | 1018.4 |
| 20260503183025 | 62 | 40 | 2.0 | 3.0 | 0.00 | 0.00 | 0.00 | 30 | 1018.6 |
| 20260503182523 | 61 | 321 | 0.0 | 4.0 | 0.00 | 0.00 | 0.00 | 30 | 1018.6 |
| 20260503182021 | 62 | 351 | 0.0 | 2.0 | 0.00 | 0.00 | 0.00 | 31 | 1018.9 |
| 20260503181517 | 62 | 277 | 0.0 | 4.0 | 0.00 | 0.00 | 0.00 | 35 | 1018.9 |